AAL2315 KJFK-KMIA

Flight info

Callsign AAL2315
Flight time N/A
Altitude 38000
Route WAVEY EMJAY Q167 KALDA Q101 SKARP Y313 HOAGG BNFSH3
Aircraft B77W/H-SDE1E2E3FGHIJ2J3J4J5M1RWXY/LB1D1

Departure

Time N/A
Airport John F. Kennedy International Airport (KJFK)

Arrival

Time 2026-05-04 00:23
Airport Miami International Airport (KMIA)
Time Latitude Longitude Altitude Speed Heading
2026-05-03 21:53 39.89467 -73.48391 21985 ft 415 kts 227°
2026-05-03 21:54 39.87263 -73.50849 22786 ft 419 kts 227°
2026-05-03 21:54 39.85039 -73.53325 23564 ft 423 kts 227°
2026-05-03 21:54 39.82792 -73.55823 24210 ft 426 kts 227°
2026-05-03 21:54 39.80531 -73.58336 24854 ft 429 kts 227°
2026-05-03 21:55 39.78258 -73.60860 25516 ft 432 kts 227°
2026-05-03 21:55 39.75994 -73.63371 26116 ft 434 kts 227°
2026-05-03 21:55 39.73687 -73.65928 26713 ft 437 kts 227°
2026-05-03 21:55 39.71363 -73.68502 27299 ft 441 kts 227°
2026-05-03 21:56 39.69023 -73.71092 27874 ft 443 kts 227°
2026-05-03 21:56 39.66665 -73.73699 28423 ft 446 kts 226°
2026-05-03 21:56 39.64291 -73.76321 28951 ft 449 kts 226°
2026-05-03 21:56 39.61903 -73.78955 29431 ft 451 kts 226°
2026-05-03 21:57 39.59500 -73.81604 29877 ft 454 kts 226°
2026-05-03 21:57 39.57091 -73.84258 30246 ft 456 kts 226°
2026-05-03 21:57 39.54668 -73.86923 30669 ft 456 kts 226°
2026-05-03 21:57 39.52247 -73.89582 31148 ft 455 kts 226°
2026-05-03 21:58 39.49835 -73.92230 31626 ft 453 kts 226°
2026-05-03 21:58 39.47428 -73.94871 32118 ft 452 kts 226°
2026-05-03 21:58 39.45838 -73.96616 32400 ft 452 kts 226°
2026-05-03 21:58 39.43443 -73.99242 32823 ft 452 kts 226°
2026-05-03 21:59 39.41043 -74.01868 33254 ft 451 kts 226°
2026-05-03 21:59 39.38652 -74.04486 33672 ft 451 kts 227°
2026-05-03 21:59 39.35485 -74.07951 34171 ft 450 kts 227°
2026-05-03 21:59 39.33098 -74.10562 34519 ft 449 kts 227°
2026-05-03 22:00 39.31484 -74.12325 34762 ft 448 kts 227°
2026-05-03 22:00 39.29132 -74.14894 35123 ft 447 kts 226°
2026-05-03 22:00 39.26762 -74.17481 35469 ft 446 kts 226°
2026-05-03 22:00 39.24398 -74.20059 35810 ft 445 kts 226°
2026-05-03 22:01 39.22035 -74.22633 36143 ft 444 kts 226°
2026-05-03 22:01 39.19679 -74.25198 36476 ft 442 kts 226°
2026-05-03 22:01 39.17328 -74.27754 36795 ft 441 kts 226°
2026-05-03 22:01 39.14990 -74.30295 37124 ft 440 kts 226°
2026-05-03 22:02 39.12648 -74.32838 37436 ft 439 kts 226°
2026-05-03 22:02 39.10316 -74.35368 37766 ft 437 kts 226°
2026-05-03 22:02 39.07984 -74.37895 37947 ft 439 kts 226°
2026-05-03 22:02 39.05638 -74.40438 37986 ft 441 kts 226°
2026-05-03 22:03 39.00987 -74.45464 38017 ft 435 kts 226°
2026-05-03 22:03 38.96376 -74.50442 38025 ft 431 kts 226°
2026-05-03 22:04 38.91827 -74.55443 38021 ft 428 kts 228°
2026-05-03 22:04 38.87462 -74.60606 38030 ft 426 kts 229°
2026-05-03 22:05 38.83099 -74.65765 38036 ft 426 kts 228°
2026-05-03 22:05 38.78716 -74.70887 38028 ft 426 kts 228°
2026-05-03 22:06 38.74305 -74.75960 38030 ft 427 kts 226°
2026-05-03 22:06 38.69701 -74.80775 38034 ft 427 kts 225°
2026-05-03 22:07 38.65085 -74.85546 38030 ft 426 kts 225°
2026-05-03 22:07 38.60515 -74.90292 38037 ft 425 kts 225°
2026-05-03 22:08 38.55905 -74.95084 38036 ft 424 kts 225°
2026-05-03 22:08 38.51386 -74.99825 38037 ft 421 kts 227°
2026-05-03 22:09 38.46979 -75.04762 38041 ft 421 kts 226°
2026-05-03 22:10 38.39957 -75.11556 38038 ft 422 kts 223°
2026-05-03 22:10 38.35237 -75.16008 38041 ft 421 kts 223°
2026-05-03 22:11 38.30539 -75.20457 38026 ft 420 kts 223°
2026-05-03 22:11 38.25856 -75.24895 38036 ft 419 kts 224°
2026-05-03 22:12 38.21181 -75.29319 38037 ft 418 kts 224°
2026-05-03 22:12 38.16543 -75.33702 38047 ft 417 kts 224°
2026-05-03 22:13 38.11885 -75.38097 38049 ft 417 kts 224°
2026-05-03 22:13 38.07230 -75.42482 38059 ft 416 kts 224°
2026-05-03 22:14 38.02528 -75.46795 38054 ft 418 kts 222°
2026-05-03 22:14 37.97713 -75.50920 38057 ft 417 kts 221°
2026-05-03 22:15 37.92912 -75.55054 38051 ft 416 kts 222°
2026-05-03 22:15 37.88114 -75.59156 38051 ft 418 kts 217°
2026-05-03 22:15 37.85413 -75.60666 38066 ft 431 kts 207°
2026-05-03 22:16 37.82484 -75.61640 38060 ft 440 kts 201°
2026-05-03 22:16 37.79413 -75.62170 38055 ft 453 kts 192°
2026-05-03 22:16 37.76213 -75.61965 38081 ft 465 kts 185°
2026-05-03 22:17 37.69824 -75.61269 38051 ft 457 kts 191°
2026-05-03 22:17 37.63624 -75.61981 38068 ft 440 kts 200°
2026-05-03 22:18 37.57584 -75.63360 38064 ft 441 kts 200°
2026-05-03 22:18 37.51528 -75.64692 38073 ft 441 kts 200°
2026-05-03 22:19 37.45477 -75.65998 38062 ft 441 kts 200°
2026-05-03 22:19 37.39437 -75.67295 38067 ft 439 kts 200°
2026-05-03 22:20 37.33412 -75.68589 38064 ft 438 kts 200°
2026-05-03 22:20 37.27409 -75.69877 38077 ft 436 kts 200°
2026-05-03 22:21 37.21467 -75.71151 38072 ft 435 kts 200°
2026-05-03 22:21 37.15501 -75.72428 38085 ft 433 kts 200°
2026-05-03 22:22 37.09584 -75.73760 38082 ft 427 kts 204°
2026-05-03 22:22 37.04051 -75.76067 38091 ft 414 kts 211°
2026-05-03 22:23 36.98964 -75.79171 38078 ft 406 kts 217°
2026-05-03 22:23 36.94043 -75.82611 38071 ft 405 kts 218°
2026-05-03 22:24 36.89129 -75.86050 38056 ft 404 kts 217°
2026-05-03 22:24 36.84215 -75.89464 38055 ft 404 kts 217°
2026-05-03 22:25 36.79305 -75.92861 38054 ft 403 kts 217°
2026-05-03 22:25 36.74397 -75.96248 38051 ft 403 kts 217°
2026-05-03 22:26 36.69492 -75.99628 38062 ft 402 kts 217°
2026-05-03 22:26 36.64593 -76.02998 38076 ft 402 kts 217°
2026-05-03 22:27 36.59697 -76.06362 38064 ft 401 kts 217°
2026-05-03 22:27 36.54808 -76.09716 38071 ft 401 kts 217°
2026-05-03 22:28 36.49930 -76.13058 38071 ft 400 kts 217°
2026-05-03 22:28 36.45057 -76.16391 38074 ft 399 kts 217°
2026-05-03 22:29 36.40197 -76.19711 38072 ft 398 kts 217°
2026-05-03 22:29 36.35386 -76.22992 38073 ft 397 kts 217°
2026-05-03 22:30 36.30553 -76.26284 38069 ft 396 kts 217°
2026-05-03 22:30 36.25730 -76.29565 38076 ft 394 kts 217°
2026-05-03 22:31 36.20920 -76.32832 38072 ft 393 kts 217°
2026-05-03 22:31 36.16120 -76.36088 38064 ft 393 kts 217°
2026-05-03 22:32 36.11327 -76.39335 38092 ft 392 kts 217°
2026-05-03 22:32 36.06574 -76.42550 38098 ft 391 kts 217°
2026-05-03 22:33 36.01796 -76.45778 38083 ft 391 kts 217°
2026-05-03 22:33 35.97029 -76.48995 38089 ft 390 kts 217°
2026-05-03 22:34 35.92263 -76.52206 38090 ft 390 kts 217°
2026-05-03 22:34 35.87478 -76.55376 38093 ft 390 kts 215°
2026-05-03 22:35 35.82613 -76.58365 38086 ft 391 kts 214°
2026-05-03 22:35 35.77743 -76.61326 38091 ft 390 kts 214°
2026-05-03 22:36 35.72891 -76.64295 38089 ft 389 kts 214°
2026-05-03 22:36 35.68060 -76.67261 38096 ft 388 kts 214°
2026-05-03 22:37 35.63215 -76.70235 38093 ft 388 kts 214°
2026-05-03 22:37 35.58379 -76.73199 38095 ft 387 kts 214°
2026-05-03 22:38 35.53559 -76.76150 38089 ft 387 kts 214°
2026-05-03 22:38 35.48747 -76.79091 38091 ft 386 kts 215°
2026-05-03 22:39 35.43934 -76.82029 38091 ft 385 kts 214°
2026-05-03 22:39 35.39133 -76.84956 38098 ft 384 kts 214°
2026-05-03 22:40 35.34378 -76.87852 38088 ft 383 kts 214°
2026-05-03 22:40 35.29604 -76.90756 38088 ft 382 kts 214°
2026-05-03 22:41 35.25640 -76.93163 38090 ft 382 kts 214°
2026-05-03 22:41 35.20900 -76.96077 38094 ft 380 kts 215°
2026-05-03 22:42 35.16197 -76.99032 38089 ft 379 kts 215°
2026-05-03 22:42 35.13593 -77.00669 38082 ft 379 kts 215°
2026-05-03 22:43 35.08900 -77.03611 38081 ft 379 kts 215°
2026-05-03 22:43 35.04212 -77.06542 38085 ft 378 kts 215°
2026-05-03 22:44 34.99521 -77.09469 38077 ft 378 kts 215°
2026-05-03 22:44 34.94865 -77.12370 38096 ft 378 kts 215°
2026-05-03 22:45 34.90180 -77.15285 38090 ft 378 kts 215°
2026-05-03 22:45 34.85502 -77.18192 38102 ft 377 kts 215°
2026-05-03 22:46 34.80822 -77.21097 38091 ft 377 kts 215°
2026-05-03 22:46 34.76146 -77.23995 38091 ft 377 kts 215°
2026-05-03 22:47 34.71483 -77.26882 38085 ft 376 kts 215°
2026-05-03 22:47 34.66822 -77.29765 38088 ft 376 kts 215°
2026-05-03 22:48 34.62161 -77.32643 38090 ft 375 kts 215°
2026-05-03 22:48 34.57536 -77.35497 38092 ft 375 kts 214°
2026-05-03 22:49 34.52882 -77.38360 38093 ft 375 kts 214°
2026-05-03 22:49 34.47929 -77.40618 38100 ft 384 kts 207°
2026-05-03 22:50 34.42696 -77.42211 38098 ft 393 kts 201°
2026-05-03 22:50 34.37290 -77.43271 38102 ft 394 kts 200°
2026-05-03 22:51 34.31873 -77.44297 38104 ft 393 kts 200°
2026-05-03 22:51 34.26475 -77.45336 38105 ft 392 kts 200°
2026-05-03 22:52 34.21090 -77.46384 38106 ft 391 kts 200°
2026-05-03 22:52 34.15721 -77.47432 38125 ft 390 kts 200°
2026-05-03 22:53 34.10362 -77.48477 38118 ft 390 kts 200°
2026-05-03 22:53 34.05011 -77.49519 38121 ft 389 kts 200°
2026-05-03 22:54 33.99672 -77.50558 38116 ft 388 kts 200°
2026-05-03 22:54 33.94339 -77.51594 38121 ft 388 kts 200°
2026-05-03 22:55 33.89014 -77.52627 38115 ft 387 kts 200°
2026-05-03 22:55 33.83690 -77.53659 38124 ft 387 kts 200°
2026-05-03 22:56 33.78369 -77.54689 38126 ft 387 kts 200°
2026-05-03 22:56 33.73047 -77.55717 38128 ft 387 kts 200°
2026-05-03 22:57 33.67726 -77.56745 38130 ft 387 kts 200°
2026-05-03 22:57 33.62395 -77.57773 38131 ft 388 kts 200°
2026-05-03 22:58 33.57117 -77.58938 38138 ft 382 kts 204°
2026-05-03 22:58 33.52047 -77.60703 38142 ft 379 kts 206°
2026-05-03 22:59 33.47017 -77.62476 38138 ft 379 kts 205°
2026-05-03 22:59 33.41945 -77.64255 38142 ft 380 kts 205°
2026-05-03 23:00 33.36865 -77.66032 38133 ft 380 kts 205°
2026-05-03 23:00 33.31786 -77.67804 38142 ft 380 kts 205°
2026-05-03 23:01 33.26702 -77.69576 38137 ft 380 kts 205°
2026-05-03 23:01 33.21613 -77.71349 38144 ft 381 kts 205°
2026-05-03 23:02 33.16553 -77.73109 38137 ft 381 kts 205°
2026-05-03 23:02 33.11458 -77.74878 38141 ft 381 kts 205°
2026-05-03 23:03 33.06369 -77.76644 38159 ft 381 kts 205°
2026-05-03 23:03 33.01271 -77.78411 38146 ft 382 kts 205°
2026-05-03 23:04 32.96166 -77.80178 38153 ft 382 kts 205°
2026-05-03 23:04 32.91055 -77.81945 38145 ft 383 kts 205°
2026-05-03 23:05 32.85927 -77.83716 38173 ft 384 kts 205°
2026-05-03 23:05 32.80795 -77.85486 38151 ft 384 kts 205°
2026-05-03 23:06 32.75650 -77.87258 38153 ft 385 kts 204°
2026-05-03 23:06 32.70495 -77.89032 38149 ft 386 kts 204°
2026-05-03 23:07 32.65330 -77.90794 38155 ft 387 kts 204°
2026-05-03 23:07 32.60161 -77.92473 38154 ft 388 kts 204°
2026-05-03 23:08 32.54945 -77.94150 38158 ft 388 kts 204°
2026-05-03 23:08 32.49726 -77.95833 38158 ft 389 kts 204°
2026-05-03 23:09 32.44506 -77.97520 38156 ft 389 kts 204°
2026-05-03 23:09 32.39272 -77.99211 38152 ft 390 kts 204°
2026-05-03 23:10 32.34032 -78.00902 38162 ft 391 kts 204°
2026-05-03 23:10 32.28775 -78.02597 38152 ft 392 kts 204°
2026-05-03 23:11 32.23508 -78.04293 38156 ft 393 kts 204°
2026-05-03 23:11 32.18228 -78.05991 38147 ft 393 kts 204°
2026-05-03 23:12 32.12931 -78.07692 38149 ft 394 kts 204°
2026-05-03 23:12 32.07626 -78.09394 38149 ft 395 kts 204°
2026-05-03 23:13 32.02310 -78.11097 38153 ft 396 kts 204°
2026-05-03 23:13 31.96974 -78.12805 38144 ft 398 kts 204°
2026-05-03 23:14 31.91625 -78.14515 38153 ft 399 kts 204°
2026-05-03 23:14 31.86256 -78.16229 38148 ft 400 kts 204°
2026-05-03 23:15 31.80910 -78.17933 38154 ft 401 kts 204°
2026-05-03 23:15 31.75534 -78.19645 38156 ft 401 kts 204°
2026-05-03 23:16 31.70141 -78.21360 38156 ft 402 kts 204°
2026-05-03 23:16 31.64741 -78.23076 38142 ft 402 kts 204°
2026-05-03 23:17 31.59338 -78.24790 38147 ft 402 kts 204°
2026-05-03 23:17 31.53934 -78.26504 38140 ft 402 kts 204°
2026-05-03 23:18 31.48530 -78.28215 38151 ft 403 kts 204°
2026-05-03 23:18 31.43127 -78.29967 38139 ft 402 kts 205°
2026-05-03 23:19 31.37737 -78.31784 38141 ft 403 kts 205°
2026-05-03 23:19 31.33252 -78.33297 38139 ft 404 kts 205°
2026-05-03 23:20 31.27840 -78.35113 38142 ft 405 kts 205°
2026-05-03 23:20 31.22401 -78.36931 38138 ft 406 kts 204°
2026-05-03 23:21 31.16967 -78.38743 38138 ft 406 kts 204°
2026-05-03 23:21 31.11553 -78.40546 38138 ft 406 kts 204°
2026-05-03 23:22 31.03394 -78.43260 38140 ft 406 kts 204°
2026-05-03 23:22 30.97959 -78.45065 38136 ft 406 kts 204°
2026-05-03 23:23 30.92527 -78.46868 38140 ft 405 kts 205°
2026-05-03 23:23 30.87101 -78.48666 38135 ft 405 kts 205°
2026-05-03 23:24 30.81678 -78.50461 38135 ft 405 kts 205°
2026-05-03 23:24 30.76249 -78.52256 38130 ft 405 kts 205°
2026-05-03 23:25 30.70858 -78.54037 38135 ft 405 kts 205°
2026-05-03 23:25 30.65437 -78.55825 38132 ft 405 kts 205°
2026-05-03 23:26 30.60005 -78.57615 38135 ft 405 kts 205°
2026-05-03 23:26 30.54577 -78.59402 38127 ft 405 kts 205°
2026-05-03 23:27 30.49144 -78.61188 38133 ft 406 kts 205°
2026-05-03 23:27 30.43719 -78.62966 38220 ft 399 kts 205°
2026-05-03 23:28 30.38536 -78.64653 38133 ft 383 kts 206°
2026-05-03 23:28 30.33389 -78.66351 38129 ft 386 kts 206°
2026-05-03 23:29 30.28193 -78.68058 38131 ft 390 kts 206°
2026-05-03 23:29 30.22951 -78.69772 38124 ft 392 kts 206°
2026-05-03 23:30 30.17680 -78.71493 38128 ft 394 kts 206°
2026-05-03 23:30 30.12390 -78.73223 38123 ft 395 kts 206°
2026-05-03 23:31 30.07093 -78.74954 38119 ft 395 kts 206°
2026-05-03 23:31 30.01834 -78.76670 38113 ft 395 kts 206°
2026-05-03 23:32 29.96539 -78.78397 38110 ft 395 kts 206°
2026-05-03 23:32 29.91256 -78.80118 38112 ft 394 kts 206°
2026-05-03 23:33 29.85971 -78.81839 38110 ft 394 kts 206°
2026-05-03 23:33 29.80691 -78.83553 38109 ft 395 kts 205°
2026-05-03 23:34 29.75217 -78.84771 38110 ft 407 kts 198°
2026-05-03 23:34 29.69585 -78.85508 38103 ft 408 kts 198°
2026-05-03 23:35 29.63936 -78.86256 38103 ft 408 kts 198°
2026-05-03 23:35 29.58284 -78.87012 38100 ft 409 kts 198°
2026-05-03 23:36 29.52661 -78.87768 38107 ft 410 kts 198°
2026-05-03 23:36 29.46987 -78.88530 38106 ft 411 kts 198°
2026-05-03 23:37 29.41308 -78.89292 38103 ft 411 kts 198°
2026-05-03 23:37 29.35606 -78.90056 38098 ft 412 kts 198°
2026-05-03 23:38 29.29909 -78.90819 38097 ft 412 kts 198°
2026-05-03 23:38 29.24198 -78.91582 38096 ft 413 kts 198°
2026-05-03 23:39 29.18486 -78.92345 38095 ft 413 kts 198°
2026-05-03 23:39 29.12772 -78.93108 38090 ft 414 kts 198°
2026-05-03 23:40 29.07047 -78.93871 38088 ft 414 kts 198°
2026-05-03 23:40 29.01321 -78.94633 38084 ft 414 kts 198°
2026-05-03 23:41 28.95624 -78.95391 38086 ft 415 kts 198°
2026-05-03 23:41 28.89869 -78.96155 38087 ft 416 kts 198°
2026-05-03 23:42 28.84114 -78.96919 38089 ft 416 kts 198°
2026-05-03 23:42 28.78356 -78.97683 38087 ft 417 kts 198°
2026-05-03 23:43 28.72588 -78.98446 38081 ft 417 kts 198°
2026-05-03 23:43 28.66845 -78.99206 38081 ft 418 kts 198°
2026-05-03 23:44 28.61061 -78.99970 38082 ft 418 kts 198°
2026-05-03 23:44 28.55268 -79.00734 38078 ft 419 kts 198°
2026-05-03 23:45 28.49476 -79.01498 38073 ft 419 kts 198°
2026-05-03 23:45 28.43677 -79.02261 38083 ft 420 kts 198°
2026-05-03 23:46 28.37863 -79.03026 38077 ft 420 kts 198°
2026-05-03 23:46 28.32247 -79.04246 38074 ft 408 kts 206°
2026-05-03 23:47 28.26878 -79.06236 38066 ft 405 kts 208°
2026-05-03 23:47 28.21532 -79.08248 38069 ft 405 kts 208°
2026-05-03 23:48 28.16174 -79.10252 38067 ft 406 kts 208°
2026-05-03 23:48 28.10788 -79.12258 38061 ft 407 kts 207°
2026-05-03 23:49 28.05400 -79.14262 38064 ft 408 kts 207°
2026-05-03 23:49 28.00002 -79.16269 38059 ft 409 kts 207°
2026-05-03 23:50 27.95506 -79.17938 38062 ft 410 kts 207°
2026-05-03 23:50 27.89201 -79.20276 38057 ft 411 kts 207°
2026-05-03 23:51 27.83763 -79.22290 38057 ft 411 kts 207°
2026-05-03 23:51 27.78314 -79.24306 38057 ft 412 kts 207°
2026-05-03 23:52 27.72856 -79.26324 38056 ft 413 kts 207°
2026-05-03 23:52 27.67392 -79.28341 38050 ft 413 kts 207°
2026-05-03 23:53 27.61927 -79.30357 38045 ft 414 kts 207°
2026-05-03 23:53 27.56441 -79.32379 38047 ft 414 kts 207°
2026-05-03 23:54 27.50957 -79.34397 38044 ft 414 kts 207°
2026-05-03 23:54 27.45473 -79.36414 38039 ft 415 kts 207°
2026-05-03 23:55 27.39981 -79.38432 38036 ft 415 kts 207°
2026-05-03 23:55 27.37199 -79.39458 37258 ft 427 kts 206°
2026-05-03 23:55 27.34377 -79.40494 36533 ft 426 kts 206°
2026-05-03 23:56 27.31561 -79.41523 35764 ft 425 kts 206°
2026-05-03 23:56 27.28740 -79.42555 34893 ft 427 kts 206°
2026-05-03 23:56 27.25912 -79.43591 34011 ft 429 kts 206°
2026-05-03 23:56 27.23061 -79.44636 32989 ft 431 kts 205°
2026-05-03 23:57 27.20201 -79.45683 32024 ft 433 kts 205°
2026-05-03 23:57 27.17323 -79.46735 31123 ft 435 kts 205°
2026-05-03 23:57 27.14452 -79.47782 30437 ft 432 kts 204°
2026-05-03 23:57 27.11601 -79.48822 29678 ft 430 kts 204°
2026-05-03 23:58 27.08759 -79.49858 28929 ft 427 kts 204°
2026-05-03 23:58 27.05981 -79.50871 28245 ft 423 kts 204°
2026-05-03 23:58 27.03199 -79.51885 27593 ft 419 kts 204°
2026-05-03 23:58 27.00438 -79.52891 26942 ft 415 kts 204°
2026-05-03 23:59 26.97695 -79.53890 26311 ft 412 kts 204°
2026-05-03 23:59 26.94967 -79.54885 25677 ft 411 kts 204°
2026-05-03 23:59 26.92244 -79.55878 25047 ft 411 kts 204°
2026-05-03 23:59 26.89536 -79.56862 24440 ft 409 kts 204°
2026-05-04 00:00 26.86828 -79.57845 23793 ft 409 kts 204°
2026-05-04 00:00 26.84125 -79.58820 23059 ft 408 kts 203°
2026-05-04 00:00 26.81427 -79.59791 22377 ft 405 kts 203°
2026-05-04 00:00 26.78762 -79.60750 21744 ft 401 kts 203°
2026-05-04 00:01 26.76107 -79.61705 21121 ft 398 kts 203°
2026-05-04 00:01 26.73484 -79.62650 20516 ft 395 kts 203°
2026-05-04 00:01 26.70905 -79.63580 19956 ft 392 kts 202°
2026-05-04 00:01 26.68352 -79.64497 19794 ft 378 kts 202°
2026-05-04 00:02 26.65865 -79.65390 19414 ft 371 kts 202°
2026-05-04 00:02 26.63421 -79.66269 19042 ft 366 kts 202°
2026-05-04 00:02 26.61018 -79.67127 18668 ft 360 kts 202°
2026-05-04 00:02 26.59436 -79.67682 18427 ft 357 kts 202°
2026-05-04 00:03 26.57081 -79.68504 18030 ft 352 kts 202°
2026-05-04 00:03 26.54760 -79.69315 17610 ft 348 kts 202°
2026-05-04 00:03 26.52457 -79.70120 17200 ft 344 kts 202°
2026-05-04 00:03 26.50179 -79.70917 16795 ft 341 kts 202°
2026-05-04 00:04 26.47950 -79.71754 16382 ft 334 kts 207°
2026-05-04 00:04 26.45937 -79.72987 15996 ft 328 kts 217°
2026-05-04 00:04 26.44129 -79.74505 15617 ft 324 kts 224°
2026-05-04 00:04 26.42567 -79.76292 15231 ft 320 kts 230°
2026-05-04 00:05 26.41083 -79.78132 14859 ft 319 kts 230°
2026-05-04 00:05 26.39594 -79.79968 14491 ft 318 kts 230°
2026-05-04 00:05 26.38155 -79.81843 14122 ft 317 kts 234°
2026-05-04 00:05 26.36882 -79.83839 13748 ft 316 kts 237°
2026-05-04 00:06 26.35636 -79.85859 13350 ft 316 kts 237°
2026-05-04 00:06 26.34389 -79.87872 12946 ft 316 kts 237°
2026-05-04 00:06 26.33131 -79.89889 12548 ft 316 kts 237°
2026-05-04 00:06 26.31877 -79.91896 12161 ft 316 kts 237°
2026-05-04 00:07 26.30647 -79.93860 12011 ft 306 kts 237°
2026-05-04 00:07 26.29451 -79.95767 11894 ft 295 kts 237°
2026-05-04 00:07 26.28293 -79.97615 11727 ft 286 kts 237°
2026-05-04 00:07 26.27171 -79.99403 11563 ft 278 kts 237°
2026-05-04 00:08 26.26004 -80.01113 11394 ft 278 kts 226°
2026-05-04 00:08 26.24378 -80.02338 11276 ft 286 kts 207°
2026-05-04 00:08 26.22448 -80.02966 11154 ft 291 kts 196°
2026-05-04 00:08 26.20465 -80.03395 11082 ft 289 kts 195°
2026-05-04 00:09 26.18491 -80.03812 11031 ft 289 kts 195°
2026-05-04 00:09 26.16527 -80.04234 10923 ft 286 kts 195°
2026-05-04 00:09 26.14578 -80.04663 10673 ft 283 kts 195°
2026-05-04 00:09 26.12697 -80.05085 10441 ft 278 kts 195°
2026-05-04 00:10 26.10808 -80.05513 10200 ft 275 kts 196°
2026-05-04 00:10 26.08914 -80.05945 9957 ft 273 kts 196°
2026-05-04 00:10 26.07052 -80.06370 9695 ft 272 kts 196°
2026-05-04 00:10 26.05218 -80.06828 9456 ft 270 kts 197°
2026-05-04 00:11 26.03390 -80.07307 9191 ft 269 kts 197°
2026-05-04 00:11 26.01571 -80.07786 8939 ft 268 kts 197°
2026-05-04 00:11 25.99761 -80.08260 8690 ft 267 kts 197°
2026-05-04 00:11 25.97950 -80.08732 8457 ft 266 kts 197°
2026-05-04 00:12 25.96151 -80.09200 8199 ft 266 kts 197°
2026-05-04 00:12 25.94355 -80.09666 7956 ft 265 kts 197°
2026-05-04 00:12 25.92600 -80.10231 7698 ft 257 kts 211°
2026-05-04 00:12 25.91247 -80.11422 7474 ft 249 kts 230°
2026-05-04 00:13 25.90087 -80.12870 7263 ft 254 kts 230°
2026-05-04 00:13 25.88896 -80.14350 7019 ft 256 kts 232°
2026-05-04 00:13 25.88054 -80.16053 6775 ft 254 kts 254°
2026-05-04 00:13 25.87834 -80.17991 6553 ft 254 kts 268°
2026-05-04 00:14 25.87806 -80.19959 6323 ft 255 kts 268°
2026-05-04 00:14 25.87760 -80.21931 6080 ft 256 kts 268°
2026-05-04 00:14 25.87702 -80.23914 5827 ft 256 kts 268°
2026-05-04 00:14 25.87641 -80.25878 5586 ft 253 kts 267°
2026-05-04 00:15 25.87580 -80.27827 5332 ft 249 kts 268°
2026-05-04 00:15 25.87861 -80.29689 5056 ft 247 kts 292°
2026-05-04 00:15 25.88678 -80.31375 4845 ft 250 kts 297°
2026-05-04 00:15 25.89530 -80.33083 4614 ft 255 kts 297°
2026-05-04 00:16 25.90391 -80.34814 4369 ft 257 kts 297°
2026-05-04 00:16 25.91252 -80.36554 4121 ft 256 kts 297°
2026-05-04 00:16 25.92103 -80.38285 3880 ft 256 kts 297°
2026-05-04 00:16 25.92953 -80.40021 3650 ft 255 kts 297°
2026-05-04 00:17 25.93794 -80.41753 3406 ft 255 kts 297°
2026-05-04 00:17 25.94631 -80.43488 3150 ft 254 kts 297°
2026-05-04 00:17 25.95412 -80.45204 3048 ft 243 kts 288°
2026-05-04 00:17 25.95542 -80.47044 3041 ft 244 kts 257°
2026-05-04 00:18 25.94795 -80.48703 2997 ft 238 kts 227°
2026-05-04 00:18 25.93446 -80.49629 2991 ft 225 kts 194°
2026-05-04 00:18 25.91961 -80.49582 2989 ft 209 kts 159°
2026-05-04 00:18 25.90727 -80.48770 3059 ft 210 kts 145°
2026-05-04 00:19 25.89556 -80.47779 3037 ft 211 kts 143°
2026-05-04 00:19 25.88421 -80.46787 2995 ft 202 kts 140°
2026-05-04 00:19 25.87651 -80.45570 3034 ft 194 kts 114°
2026-05-04 00:19 25.87057 -80.44176 2779 ft 201 kts 119°
2026-05-04 00:20 25.86381 -80.42835 2515 ft 194 kts 120°
2026-05-04 00:20 25.85727 -80.41565 2278 ft 180 kts 120°
2026-05-04 00:20 25.85112 -80.40361 2041 ft 181 kts 119°
2026-05-04 00:20 25.84507 -80.39175 1800 ft 170 kts 119°
2026-05-04 00:21 25.83936 -80.38058 1608 ft 164 kts 119°
2026-05-04 00:21 25.83391 -80.36992 1329 ft 155 kts 118°
2026-05-04 00:21 25.82879 -80.35969 1148 ft 149 kts 118°
2026-05-04 00:21 25.82345 -80.34961 989 ft 154 kts 118°
2026-05-04 00:22 25.81828 -80.33942 817 ft 148 kts 118°
2026-05-04 00:22 25.81317 -80.32960 633 ft 146 kts 118°
2026-05-04 00:22 25.80823 -80.31990 415 ft 143 kts 117°
2026-05-04 00:22 25.80342 -80.31036 221 ft 141 kts 118°
2026-05-04 00:23 25.79858 -80.30090 41 ft 140 kts 118°
2026-05-04 00:23 25.79429 -80.29248 23 ft 99 kts 119°
2026-05-04 00:23 25.79195 -80.28791 19 ft 53 kts 119°
2026-05-04 00:23 25.79101 -80.28576 20 ft 21 kts 101°
2026-05-04 00:24 25.79111 -80.28463 24 ft 10 kts 63°
2026-05-04 00:24 25.79172 -80.28408 27 ft 11 kts 20°
2026-05-04 00:24 25.79226 -80.28426 27 ft 9 kts 313°
2026-05-04 00:24 25.79269 -80.28503 24 ft 14 kts 298°
2026-05-04 00:25 25.79314 -80.28595 25 ft 13 kts 298°
2026-05-04 00:25 25.79361 -80.28686 20 ft 14 kts 302°
2026-05-04 00:25 25.79405 -80.28768 20 ft 10 kts 304°
2026-05-04 00:25 25.79465 -80.28798 26 ft 9 kts 353°
2026-05-04 00:26 25.79541 -80.28803 25 ft 13 kts 359°
2026-05-04 00:26 25.79635 -80.28809 30 ft 13 kts 356°
2026-05-04 00:26 25.79726 -80.28813 28 ft 13 kts 357°
2026-05-04 00:26 25.79816 -80.28818 29 ft 11 kts 357°
2026-05-04 00:27 25.79890 -80.28820 26 ft 10 kts
2026-05-04 00:27 25.79931 -80.28764 27 ft 10 kts 79°
2026-05-04 00:27 25.79938 -80.28682 29 ft 14 kts 86°
2026-05-04 00:27 25.79943 -80.28568 23 ft 16 kts 87°
2026-05-04 00:28 25.79948 -80.28446 25 ft 16 kts 88°
2026-05-04 00:28 25.79953 -80.28325 20 ft 15 kts 87°
2026-05-04 00:28 25.79958 -80.28208 20 ft 15 kts 87°
2026-05-04 00:28 25.79963 -80.28092 18 ft 15 kts 88°
2026-05-04 00:29 25.79967 -80.27976 17 ft 15 kts 88°
2026-05-04 00:29 25.79973 -80.27871 18 ft 13 kts 86°
2026-05-04 00:29 25.79977 -80.27810 20 ft 5 kts 86°
2026-05-04 00:29 25.79973 -80.27769 21 ft 7 kts 112°
2026-05-04 00:30 25.79936 -80.27747 23 ft 6 kts 171°
2026-05-04 00:30 25.79896 -80.27771 21 ft 8 kts 239°
2026-05-04 00:30 25.79885 -80.27832 20 ft 8 kts 265°
2026-05-04 00:30 25.79875 -80.27879 19 ft 5 kts 227°
2026-05-04 00:31 25.79842 -80.27884 20 ft 4 kts 179°
2026-05-04 00:31 25.79824 -80.27884 20 ft 2 kts 176°
2026-05-04 00:31 25.79809 -80.27882 23 ft 2 kts 176°
2026-05-04 00:31 25.79796 -80.27882 23 ft 2 kts 176°
2026-05-04 00:32 25.79783 -80.27881 23 ft 0 kts 177°